Hourly Weather Ruchocin

Today, 16 April, Friday

Time Temperature Precipitation Wind Pressure Humidity
00:00 +1°C° 0.1 mm 4 mps 755 mmHg 95%
01:00 +3°C° 0 mm 4 mps 755 mmHg 93%
02:00 +3°C° 0.1 mm 4 mps 755 mmHg 94%
03:00 +1°C° 0.1 mm 4 mps 755 mmHg 94%
04:00 +1°C° 0.1 mm 5 mps 755 mmHg 95%
05:00 +1°C° 0.1 mm 5 mps 755 mmHg 95%
06:00 +1°C° 0.1 mm 5 mps 755 mmHg 95%
07:00 +1°C° 0 mm 5 mps 755 mmHg 96%
08:00 +1°C° 0.1 mm 5 mps 755 mmHg 95%
09:00 +1°C° 0.1 mm 5 mps 755 mmHg 94%
10:00 +1°C° 0.1 mm 5 mps 755 mmHg 93%
11:00 +2°C° 0 mm 5 mps 755 mmHg 91%
12:00 +2°C° 0 mm 5 mps 755 mmHg 89%
13:00 +3°C° 0 mm 5 mps 755 mmHg 87%
14:00 +4°C° 0 mm 4 mps 755 mmHg 88%
15:00 +4°C° 0 mm 4 mps 755 mmHg 89%
16:00 +4°C° 0 mm 4 mps 754 mmHg 90%
17:00 +4°C° 0.8 mm 4 mps 754 mmHg 91%
18:00 +4°C° 0.8 mm 4 mps 754 mmHg 93%
19:00 +4°C° 0.8 mm 4 mps 754 mmHg 94%
20:00 +4°C° 0.3 mm 4 mps 754 mmHg 95%
21:00 +4°C° 0.3 mm 4 mps 754 mmHg 95%
22:00 +4°C° 0.3 mm 4 mps 754 mmHg 95%
23:00 +3°C° 0 mm 3 mps 754 mmHg 95%

Tomorrow, 17 April, Saturday

Time Temperature Precipitation Wind Pressure Humidity
00:00 +3°C° 0 mm 3 mps 754 mmHg 95%
01:00 +3°C° 0 mm 3 mps 754 mmHg 95%
02:00 +3°C° 0 mm 3 mps 754 mmHg 96%
03:00 +4°C° 0 mm 2 mps 754 mmHg 96%
04:00 +4°C° 0 mm 2 mps 754 mmHg 97%
05:00 +4°C° 0.1 mm 3 mps 754 mmHg 96%
06:00 +4°C° 0.1 mm 3 mps 754 mmHg 96%
07:00 +5°C° 0.1 mm 3 mps 754 mmHg 95%
08:00 +7°C° 0 mm 3 mps 754 mmHg 94%
09:00 +8°C° 0 mm 3 mps 754 mmHg 92%
10:00 +8°C° 0 mm 3 mps 754 mmHg 90%
11:00 +9°C° 0 mm 3 mps 754 mmHg 87%
12:00 +9°C° 0 mm 3 mps 754 mmHg 84%
13:00 +10°C° 0 mm 3 mps 755 mmHg 82%
14:00 +10°C° 0 mm 3 mps 754 mmHg 82%
15:00 +9°C° 0 mm 3 mps 754 mmHg 83%
16:00 +9°C° 0 mm 3 mps 754 mmHg 83%
17:00 +9°C° 0 mm 3 mps 755 mmHg 86%
18:00 +9°C° 0 mm 3 mps 755 mmHg 88%
19:00 +8°C° 0 mm 3 mps 755 mmHg 90%
20:00 +8°C° 0 mm 3 mps 755 mmHg 91%
21:00 +7°C° 0 mm 3 mps 755 mmHg 92%
22:00 +5°C° 0 mm 3 mps 755 mmHg 93%
23:00 +5°C° 0 mm 3 mps 755 mmHg 93%

Day after tomorrow, 18 April, Sunday

Time Temperature Precipitation Wind Pressure Humidity
00:00 +5°C° 0 mm 2 mps 755 mmHg 94%
01:00 +5°C° 0 mm 2 mps 755 mmHg 95%
02:00 +5°C° 0 mm 2 mps 755 mmHg 95%
03:00 +4°C° 0 mm 2 mps 755 mmHg 95%
04:00 +4°C° 0 mm 2 mps 755 mmHg 96%
05:00 +5°C° 0 mm 2 mps 755 mmHg 93%
06:00 +6°C° 0 mm 2 mps 755 mmHg 90%
07:00 +7°C° 0 mm 2 mps 755 mmHg 88%
08:00 +8°C° 0 mm 2 mps 755 mmHg 83%
09:00 +10°C° 0 mm 2 mps 755 mmHg 79%
10:00 +11°C° 0 mm 3 mps 755 mmHg 75%
11:00 +12°C° 0.1 mm 3 mps 755 mmHg 71%
12:00 +13°C° 0.1 mm 3 mps 755 mmHg 66%
13:00 +14°C° 0.1 mm 3 mps 755 mmHg 62%
14:00 +13°C° 0.1 mm 3 mps 755 mmHg 65%
15:00 +13°C° 0.1 mm 3 mps 754 mmHg 68%
16:00 +12°C° 0.1 mm 3 mps 754 mmHg 71%
17:00 +11°C° 0.1 mm 3 mps 754 mmHg 76%
18:00 +12°C° 0.1 mm 2 mps 754 mmHg 80%
19:00 +10°C° 0.1 mm 2 mps 754 mmHg 85%
20:00 +9°C° 0.1 mm 2 mps 754 mmHg 87%
21:00 +9°C° 0.1 mm 2 mps 755 mmHg 89%
22:00 +9°C° 0.1 mm 2 mps 755 mmHg 91%
23:00 +8°C° 0 mm 2 mps 755 mmHg 91%

19 April, Monday

Time Temperature Precipitation Wind Pressure Humidity
00:00 +8°C° 0 mm 3 mps 754 mmHg 92%
01:00 +8°C° 0 mm 3 mps 754 mmHg 92%
02:00 +7°C° 0 mm 3 mps 754 mmHg 92%
03:00 +7°C° 0 mm 3 mps 754 mmHg 92%
04:00 +7°C° 0 mm 3 mps 754 mmHg 92%
05:00 +7°C° 0 mm 3 mps 754 mmHg 88%
06:00 +7°C° 0 mm 4 mps 754 mmHg 84%
07:00 +7°C° 0 mm 4 mps 754 mmHg 80%
08:00 +8°C° 0 mm 4 mps 754 mmHg 77%
09:00 +10°C° 0 mm 4 mps 754 mmHg 74%
10:00 +10°C° 0 mm 5 mps 754 mmHg 71%
11:00 +10°C° 0.1 mm 5 mps 754 mmHg 67%
12:00 +12°C° 0.1 mm 5 mps 753 mmHg 64%
13:00 +13°C° 0.1 mm 5 mps 753 mmHg 61%
14:00 +12°C° 0 mm 4 mps 753 mmHg 63%
15:00 +12°C° 0 mm 4 mps 753 mmHg 65%
16:00 +11°C° 0 mm 4 mps 752 mmHg 67%
17:00 +11°C° 0 mm 3 mps 752 mmHg 71%
18:00 +10°C° 0 mm 3 mps 752 mmHg 74%
19:00 +9°C° 0 mm 3 mps 752 mmHg 77%
20:00 +9°C° 0.1 mm 3 mps 752 mmHg 80%
21:00 +9°C° 0.1 mm 2 mps 752 mmHg 82%
22:00 +8°C° 0.1 mm 2 mps 752 mmHg 85%
23:00 +8°C° 0 mm 2 mps 752 mmHg 86%

20 April, Tuesday

Time Temperature Precipitation Wind Pressure Humidity
00:00 +7°C° 0 mm 2 mps 751 mmHg 88%
01:00 +6°C° 0 mm 2 mps 751 mmHg 89%
02:00 +6°C° 0 mm 2 mps 751 mmHg 89%
03:00 +6°C° 0 mm 2 mps 751 mmHg 88%
04:00 +6°C° 0 mm 2 mps 750 mmHg 87%
05:00 +6°C° 0 mm 2 mps 750 mmHg 87%
06:00 +6°C° 0 mm 2 mps 750 mmHg 86%
07:00 +7°C° 0 mm 2 mps 750 mmHg 85%
08:00 +7°C° 0.1 mm 2 mps 750 mmHg 80%
09:00 +8°C° 0.1 mm 2 mps 750 mmHg 75%
10:00 +9°C° 0.1 mm 3 mps 750 mmHg 70%
11:00 +10°C° 0.1 mm 3 mps 749 mmHg 66%
12:00 +11°C° 0.1 mm 3 mps 749 mmHg 61%
13:00 +12°C° 0.1 mm 4 mps 749 mmHg 57%
14:00 +12°C° 0.1 mm 4 mps 748 mmHg 58%
15:00 +12°C° 0.1 mm 4 mps 748 mmHg 59%
16:00 +12°C° 0.1 mm 4 mps 748 mmHg 60%
17:00 +10°C° 0.1 mm 4 mps 748 mmHg 65%
18:00 +8°C° 0.1 mm 4 mps 748 mmHg 70%
19:00 +8°C° 0.1 mm 3 mps 748 mmHg 75%
20:00 +7°C° 0 mm 3 mps 748 mmHg 79%
21:00 +6°C° 0 mm 2 mps 748 mmHg 83%
22:00 +6°C° 0 mm 2 mps 748 mmHg 87%
23:00 +5°C° 0 mm 2 mps 748 mmHg 88%

21 April, Wednesday

Time Temperature Precipitation Wind Pressure Humidity
00:00 +5°C° 0 mm 2 mps 748 mmHg 89%
01:00 +4°C° 0 mm 2 mps 748 mmHg 90%
02:00 +4°C° 0 mm 2 mps 748 mmHg 91%
03:00 +3°C° 0 mm 2 mps 748 mmHg 91%
04:00 +3°C° 0 mm 2 mps 748 mmHg 92%
05:00 +4°C° 0 mm 2 mps 748 mmHg 88%
06:00 +5°C° 0 mm 2 mps 748 mmHg 83%
07:00 +6°C° 0 mm 2 mps 748 mmHg 79%
08:00 +7°C° 0 mm 3 mps 748 mmHg 73%
09:00 +9°C° 0 mm 3 mps 748 mmHg 66%
10:00 +11°C° 0 mm 4 mps 748 mmHg 59%
11:00 +11°C° 0.1 mm 4 mps 748 mmHg 57%
12:00 +11°C° 0.1 mm 4 mps 748 mmHg 55%
13:00 +12°C° 0.1 mm 4 mps 748 mmHg 52%
14:00 +12°C° 0 mm 3 mps 748 mmHg 54%
15:00 +13°C° 0 mm 2 mps 748 mmHg 55%
16:00 +13°C° 0 mm 2 mps 748 mmHg 56%
17:00 +12°C° 0 mm 1 mps 748 mmHg 59%
18:00 +11°C° 0 mm 1 mps 748 mmHg 62%
19:00 +10°C° 0 mm 1 mps 749 mmHg 65%
20:00 +9°C° 0 mm 1 mps 749 mmHg 67%
21:00 +8°C° 0 mm 2 mps 749 mmHg 69%
22:00 +7°C° 0 mm 2 mps 749 mmHg 71%
23:00 +7°C° 0 mm 2 mps 749 mmHg 73%
Show more